ITY2096 LIRF-LIML

Flight info

Callsign ITY2096
Flight time 0h 53m
Altitude 34000
Route GILIO DCT KARDU DCT EMBOS DCT GIPIX DCT KALMO
Aircraft A320/M-SDE3FGHIRWY/LB1

Departure

Time 2026-05-07 16:58
Airport Rome–Fiumicino Leonardo da Vinci International Airport (LIRF)

Arrival

Time 2026-05-07 17:52
Airport Milano Linate Airport (LIML)
Time Latitude Longitude Altitude Speed Heading
2026-05-07 16:41 41.79627 12.25938 14 ft 0 kts 295°
2026-05-07 16:50 41.79620 12.25958 15 ft 4 kts 295°
2026-05-07 16:50 41.79610 12.25985 18 ft 4 kts 301°
2026-05-07 16:50 41.79594 12.26002 16 ft 4 kts
2026-05-07 16:50 41.79578 12.25996 17 ft 0 kts 25°
2026-05-07 16:51 41.79597 12.26008 17 ft 4 kts 25°
2026-05-07 16:51 41.79621 12.26023 15 ft 4 kts 25°
2026-05-07 16:51 41.79646 12.26039 16 ft 4 kts 25°
2026-05-07 16:51 41.79670 12.26054 14 ft 4 kts 25°
2026-05-07 16:52 41.79690 12.26066 16 ft 0 kts 25°
2026-05-07 16:53 41.79693 12.26069 15 ft 0 kts 25°
2026-05-07 16:53 41.79697 12.26071 16 ft 1 kts 25°
2026-05-07 16:53 41.79706 12.26076 15 ft 2 kts 25°
2026-05-07 16:54 41.79719 12.26085 14 ft 3 kts 25°
2026-05-07 16:54 41.79741 12.26085 14 ft 7 kts 344°
2026-05-07 16:54 41.79785 12.26014 14 ft 12 kts 295°
2026-05-07 16:54 41.79827 12.25891 14 ft 16 kts 295°
2026-05-07 16:55 41.79865 12.25814 14 ft 7 kts 345°
2026-05-07 16:55 41.79910 12.25841 15 ft 7 kts 26°
2026-05-07 16:55 41.79957 12.25872 16 ft 8 kts 26°
2026-05-07 16:55 41.79974 12.25883 14 ft 0 kts 26°
2026-05-07 16:56 41.79978 12.25886 14 ft 3 kts 28°
2026-05-07 16:56 41.80059 12.25940 14 ft 20 kts 23°
2026-05-07 16:56 41.80340 12.26110 14 ft 16 kts 26°
2026-05-07 16:57 41.80433 12.26168 16 ft 15 kts 18°
2026-05-07 16:57 41.80538 12.26161 18 ft 17 kts 340°
2026-05-07 16:57 41.80656 12.26107 17 ft 14 kts 340°
2026-05-07 16:57 41.80714 12.26063 19 ft 8 kts 280°
2026-05-07 16:58 41.80693 12.25967 18 ft 14 kts 249°
2026-05-07 16:58 41.80629 12.25731 17 ft 62 kts 250°
2026-05-07 16:58 41.80379 12.24814 19 ft 143 kts 252°
2026-05-07 16:58 41.80040 12.23422 617 ft 163 kts 254°
2026-05-07 16:59 41.79633 12.21978 1586 ft 170 kts 251°
2026-05-07 16:59 41.79313 12.20367 2245 ft 191 kts 267°
2026-05-07 16:59 41.79260 12.18485 2963 ft 214 kts 269°
2026-05-07 16:59 41.79206 12.16381 3554 ft 239 kts 268°
2026-05-07 17:00 41.79386 12.14062 4263 ft 264 kts 290°
2026-05-07 17:00 41.80308 12.11892 5367 ft 272 kts 303°
2026-05-07 17:00 41.81347 12.09755 6607 ft 277 kts 303°
2026-05-07 17:00 41.82406 12.07572 7797 ft 281 kts 302°
2026-05-07 17:01 41.83475 12.05357 9026 ft 284 kts 301°
2026-05-07 17:01 41.84554 12.03113 10246 ft 287 kts 301°
2026-05-07 17:01 41.85656 12.00815 10952 ft 309 kts 301°
2026-05-07 17:01 41.86860 11.98295 11507 ft 331 kts 301°
2026-05-07 17:02 41.88125 11.95648 12374 ft 341 kts 301°
2026-05-07 17:02 41.89416 11.92948 13369 ft 346 kts 301°
2026-05-07 17:02 41.90727 11.90206 14309 ft 351 kts 300°
2026-05-07 17:02 41.92055 11.87435 15215 ft 354 kts 300°
2026-05-07 17:03 41.93398 11.84640 16139 ft 357 kts 300°
2026-05-07 17:03 41.94748 11.81822 17052 ft 360 kts 299°
2026-05-07 17:03 41.96103 11.78977 17952 ft 363 kts 299°
2026-05-07 17:03 41.97469 11.76101 18778 ft 366 kts 299°
2026-05-07 17:04 41.98844 11.73205 19563 ft 369 kts 299°
2026-05-07 17:04 42.00230 11.70284 20358 ft 372 kts 299°
2026-05-07 17:04 42.01631 11.67335 21164 ft 375 kts 299°
2026-05-07 17:04 42.03040 11.64370 21987 ft 378 kts 300°
2026-05-07 17:05 42.04461 11.61383 22762 ft 381 kts 300°
2026-05-07 17:05 42.05872 11.58406 23523 ft 383 kts 300°
2026-05-07 17:05 42.07309 11.55366 24133 ft 386 kts 299°
2026-05-07 17:05 42.08752 11.52309 24747 ft 388 kts 299°
2026-05-07 17:06 42.10204 11.49234 25327 ft 390 kts 299°
2026-05-07 17:06 42.11662 11.46145 25896 ft 392 kts 298°
2026-05-07 17:06 42.13127 11.43040 26466 ft 394 kts 298°
2026-05-07 17:06 42.14601 11.39908 27018 ft 396 kts 298°
2026-05-07 17:07 42.16080 11.36759 27558 ft 398 kts 297°
2026-05-07 17:07 42.17564 11.33592 28091 ft 401 kts 297°
2026-05-07 17:07 42.19059 11.30404 28621 ft 403 kts 297°
2026-05-07 17:07 42.20557 11.27203 29127 ft 405 kts 297°
2026-05-07 17:08 42.22063 11.23988 29601 ft 407 kts 297°
2026-05-07 17:08 42.23581 11.20751 30058 ft 409 kts 297°
2026-05-07 17:08 42.25104 11.17498 30424 ft 411 kts 296°
2026-05-07 17:08 42.26630 11.14230 30769 ft 413 kts 296°
2026-05-07 17:09 42.28164 11.10935 31097 ft 415 kts 296°
2026-05-07 17:09 42.29705 11.07618 31393 ft 417 kts 296°
2026-05-07 17:09 42.31248 11.04299 31760 ft 417 kts 296°
2026-05-07 17:09 42.32792 11.00980 32167 ft 416 kts 296°
2026-05-07 17:10 42.34337 10.97732 32596 ft 417 kts 298°
2026-05-07 17:10 42.36196 10.94681 33024 ft 424 kts 306°
2026-05-07 17:10 42.38423 10.91987 33448 ft 433 kts 314°
2026-05-07 17:10 42.40972 10.89740 33853 ft 443 kts 322°
2026-05-07 17:11 42.43735 10.87849 33958 ft 443 kts 324°
2026-05-07 17:11 42.46485 10.86011 33972 ft 439 kts 324°
2026-05-07 17:11 42.51941 10.82365 33994 ft 436 kts 324°
2026-05-07 17:12 42.57373 10.78709 33974 ft 435 kts 324°
2026-05-07 17:12 42.62789 10.75042 33974 ft 435 kts 324°
2026-05-07 17:13 42.68170 10.71388 33977 ft 435 kts 324°
2026-05-07 17:13 42.73317 10.67890 34003 ft 435 kts 324°
2026-05-07 17:14 42.78727 10.64222 33994 ft 434 kts 324°
2026-05-07 17:14 42.84101 10.60580 33985 ft 434 kts 324°
2026-05-07 17:15 42.89500 10.56903 34003 ft 433 kts 324°
2026-05-07 17:15 42.94876 10.53219 34019 ft 432 kts 324°
2026-05-07 17:16 43.00338 10.49738 34008 ft 432 kts 326°
2026-05-07 17:16 43.05505 10.46238 33996 ft 430 kts 324°
2026-05-07 17:17 43.10806 10.42594 33993 ft 429 kts 324°
2026-05-07 17:17 43.16130 10.38999 34023 ft 429 kts 325°
2026-05-07 17:18 43.21405 10.35479 34017 ft 428 kts 325°
2026-05-07 17:18 43.26756 10.31894 34007 ft 427 kts 325°
2026-05-07 17:19 43.31749 10.28524 33998 ft 427 kts 325°
2026-05-07 17:19 43.37036 10.24935 33993 ft 426 kts 325°
2026-05-07 17:20 43.42351 10.21330 33995 ft 426 kts 325°
2026-05-07 17:20 43.47669 10.17733 33995 ft 425 kts 325°
2026-05-07 17:21 43.52977 10.14130 33984 ft 425 kts 325°
2026-05-07 17:21 43.58279 10.10515 34007 ft 425 kts 326°
2026-05-07 17:22 43.63579 10.06894 33998 ft 425 kts 325°
2026-05-07 17:22 43.68454 10.03551 33995 ft 425 kts 325°
2026-05-07 17:23 43.73755 9.99920 33989 ft 425 kts 325°
2026-05-07 17:23 43.79047 9.96295 33997 ft 425 kts 325°
2026-05-07 17:24 43.83840 9.92995 34009 ft 425 kts 325°
2026-05-07 17:24 43.88958 9.89474 34003 ft 425 kts 325°
2026-05-07 17:25 43.91607 9.87648 33819 ft 426 kts 325°
2026-05-07 17:25 43.94270 9.85807 32431 ft 432 kts 325°
2026-05-07 17:25 43.96993 9.83911 30967 ft 440 kts 326°
2026-05-07 17:25 43.99705 9.82026 29850 ft 439 kts 326°
2026-05-07 17:26 44.02418 9.80153 29012 ft 431 kts 326°
2026-05-07 17:26 44.05085 9.78316 28225 ft 423 kts 327°
2026-05-07 17:26 44.07703 9.76509 27446 ft 417 kts 327°
2026-05-07 17:26 44.09828 9.75036 26812 ft 413 kts 327°
2026-05-07 17:27 44.12273 9.73340 26095 ft 408 kts 327°
2026-05-07 17:27 44.14802 9.71577 25354 ft 404 kts 328°
2026-05-07 17:27 44.17310 9.69829 24618 ft 401 kts 328°
2026-05-07 17:27 44.19797 9.68094 23903 ft 398 kts 329°
2026-05-07 17:28 44.22266 9.66372 23139 ft 396 kts 329°
2026-05-07 17:28 44.24715 9.64657 22468 ft 391 kts 329°
2026-05-07 17:28 44.27126 9.62964 21849 ft 386 kts 330°
2026-05-07 17:28 44.29512 9.61290 21251 ft 381 kts 330°
2026-05-07 17:29 44.31867 9.59638 20657 ft 377 kts 330°
2026-05-07 17:29 44.34168 9.57930 20072 ft 372 kts 328°
2026-05-07 17:29 44.36403 9.56138 19494 ft 368 kts 327°
2026-05-07 17:29 44.38597 9.54307 18905 ft 365 kts 327°
2026-05-07 17:30 44.40731 9.52502 18327 ft 363 kts 327°
2026-05-07 17:30 44.42864 9.50703 18064 ft 350 kts 327°
2026-05-07 17:30 44.44911 9.48988 17936 ft 336 kts 327°
2026-05-07 17:30 44.46889 9.47348 17697 ft 325 kts 327°
2026-05-07 17:31 44.48818 9.45755 17387 ft 321 kts 327°
2026-05-07 17:31 44.50736 9.44167 17129 ft 319 kts 327°
2026-05-07 17:31 44.52643 9.42587 16867 ft 318 kts 327°
2026-05-07 17:31 44.54542 9.41010 16491 ft 318 kts 327°
2026-05-07 17:32 44.56456 9.39421 15932 ft 321 kts 327°
2026-05-07 17:32 44.58379 9.37863 15511 ft 319 kts 331°
2026-05-07 17:32 44.60483 9.36794 15049 ft 321 kts 346°
2026-05-07 17:32 44.61935 9.36471 14821 ft 319 kts 353°
2026-05-07 17:33 44.64887 9.36193 14327 ft 316 kts 354°
2026-05-07 17:33 44.67077 9.35976 14025 ft 312 kts 353°
2026-05-07 17:33 44.69202 9.35760 13900 ft 301 kts 353°
2026-05-07 17:33 44.71258 9.35551 13725 ft 293 kts 353°
2026-05-07 17:34 44.73279 9.35344 13396 ft 290 kts 354°
2026-05-07 17:34 44.75251 9.35142 13053 ft 287 kts 354°
2026-05-07 17:34 44.77239 9.34940 12698 ft 285 kts 354°
2026-05-07 17:34 44.79214 9.34766 12350 ft 284 kts 358°
2026-05-07 17:35 44.81123 9.35389 12019 ft 285 kts 26°
2026-05-07 17:35 44.82587 9.37240 11675 ft 286 kts 57°
2026-05-07 17:35 44.83223 9.39867 11305 ft 285 kts 84°
2026-05-07 17:35 44.83372 9.42630 11049 ft 281 kts 86°
2026-05-07 17:36 44.83510 9.45368 10813 ft 279 kts 86°
2026-05-07 17:36 44.83812 9.48055 10567 ft 277 kts 72°
2026-05-07 17:36 44.84580 9.50529 10344 ft 275 kts 58°
2026-05-07 17:36 44.85567 9.52830 10127 ft 274 kts 58°
2026-05-07 17:37 44.86544 9.55132 9894 ft 273 kts 58°
2026-05-07 17:37 44.87197 9.56676 9752 ft 271 kts 58°
2026-05-07 17:37 44.87577 9.57574 9669 ft 269 kts 58°
2026-05-07 17:37 44.87802 9.58101 9629 ft 267 kts 58°
2026-05-07 17:38 44.88943 9.60062 9535 ft 253 kts 38°
2026-05-07 17:38 44.90421 9.61255 9409 ft 241 kts 17°
2026-05-07 17:38 44.92038 9.61608 9188 ft 232 kts 356°
2026-05-07 17:38 44.93620 9.61445 8993 ft 224 kts 354°
2026-05-07 17:39 44.95158 9.61282 8801 ft 217 kts 354°
2026-05-07 17:39 44.96640 9.61115 8627 ft 210 kts 349°
2026-05-07 17:39 44.97958 9.60369 8463 ft 203 kts 321°
2026-05-07 17:39 44.98848 9.58871 8291 ft 199 kts 294°
2026-05-07 17:40 44.99150 9.56991 8133 ft 198 kts 268°
2026-05-07 17:40 44.99047 9.55051 7973 ft 198 kts 265°
2026-05-07 17:40 44.98942 9.53119 7814 ft 195 kts 265°
2026-05-07 17:40 44.98842 9.51194 7666 ft 209 kts 265°
2026-05-07 17:41 44.98730 9.49038 7472 ft 227 kts 265°
2026-05-07 17:41 44.98613 9.46796 7293 ft 231 kts 265°
2026-05-07 17:41 44.98492 9.44530 7107 ft 231 kts 265°
2026-05-07 17:41 44.98370 9.42265 6924 ft 231 kts 265°
2026-05-07 17:42 44.98249 9.40005 6747 ft 231 kts 265°
2026-05-07 17:42 44.98129 9.37762 6579 ft 231 kts 265°
2026-05-07 17:42 44.98119 9.35505 6394 ft 231 kts 282°
2026-05-07 17:42 44.98885 9.33511 6205 ft 232 kts 316°
2026-05-07 17:43 45.00281 9.32498 6019 ft 232 kts 351°
2026-05-07 17:43 45.01885 9.32360 5835 ft 231 kts 355°
2026-05-07 17:43 45.03492 9.32206 5638 ft 230 kts 354°
2026-05-07 17:43 45.05088 9.32008 5453 ft 229 kts 352°
2026-05-07 17:44 45.06669 9.31775 5270 ft 229 kts 353°
2026-05-07 17:44 45.08253 9.31587 5080 ft 228 kts 355°
2026-05-07 17:44 45.09832 9.31418 4909 ft 227 kts 355°
2026-05-07 17:44 45.11403 9.31252 4736 ft 226 kts 354°
2026-05-07 17:45 45.12975 9.31084 4563 ft 226 kts 355°
2026-05-07 17:45 45.14543 9.30917 4386 ft 225 kts 355°
2026-05-07 17:45 45.16091 9.30753 4212 ft 220 kts 355°
2026-05-07 17:45 45.17599 9.30592 4043 ft 215 kts 355°
2026-05-07 17:46 45.19083 9.30433 3952 ft 219 kts 355°
2026-05-07 17:46 45.20631 9.30268 3857 ft 219 kts 354°
2026-05-07 17:46 45.22103 9.30111 3763 ft 211 kts 355°
2026-05-07 17:46 45.23534 9.29958 3659 ft 202 kts 354°
2026-05-07 17:47 45.24901 9.29812 3533 ft 194 kts 354°
2026-05-07 17:47 45.26242 9.29668 3372 ft 192 kts 354°
2026-05-07 17:47 45.27573 9.29526 3246 ft 191 kts 353°
2026-05-07 17:47 45.28912 9.29382 3132 ft 194 kts 354°
2026-05-07 17:48 45.30244 9.29240 2917 ft 187 kts 354°
2026-05-07 17:48 45.31505 9.29105 2690 ft 178 kts 353°
2026-05-07 17:48 45.32710 9.28977 2478 ft 167 kts 352°
2026-05-07 17:48 45.33832 9.28857 2243 ft 157 kts 353°
2026-05-07 17:49 45.34874 9.28745 2048 ft 144 kts 353°
2026-05-07 17:49 45.35847 9.28641 1850 ft 135 kts 353°
2026-05-07 17:49 45.36775 9.28540 1678 ft 132 kts 353°
2026-05-07 17:49 45.37694 9.28441 1505 ft 131 kts 354°
2026-05-07 17:50 45.38606 9.28343 1325 ft 131 kts 352°
2026-05-07 17:50 45.39516 9.28245 1153 ft 131 kts 353°
2026-05-07 17:50 45.40417 9.28148 988 ft 129 kts 354°
2026-05-07 17:50 45.41294 9.28053 815 ft 127 kts 355°
2026-05-07 17:51 45.42170 9.27959 644 ft 126 kts 355°
2026-05-07 17:51 45.43046 9.27865 473 ft 126 kts 355°
2026-05-07 17:51 45.43906 9.27765 362 ft 117 kts 353°
2026-05-07 17:51 45.44580 9.27694 365 ft 73 kts 356°
2026-05-07 17:52 45.44933 9.27660 368 ft 37 kts 355°
2026-05-07 17:52 45.45162 9.27635 365 ft 23 kts 356°
2026-05-07 17:52 45.45299 9.27650 358 ft 21 kts 23°
2026-05-07 17:52 45.45412 9.27739 362 ft 12 kts 30°
2026-05-07 17:53 45.45472 9.27807 363 ft 11 kts 28°
2026-05-07 17:53 45.45547 9.27816 362 ft 11 kts 359°
2026-05-07 17:53 45.45623 9.27816 360 ft 11 kts
2026-05-07 17:53 45.45700 9.27816 360 ft 11 kts
2026-05-07 17:54 45.45781 9.27817 362 ft 11 kts
2026-05-07 17:54 45.45857 9.27820 363 ft 8 kts
2026-05-07 17:54 45.45903 9.27853 365 ft 8 kts 60°
2026-05-07 17:54 45.45907 9.27931 360 ft 7 kts 90°
2026-05-07 17:55 45.45921 9.27969 362 ft 4 kts 21°
2026-05-07 17:55 45.45948 9.27967 360 ft 3 kts 354°
2026-05-07 17:55 45.45970 9.27967 360 ft 3 kts
2026-05-07 17:55 45.45974 9.27967 360 ft 0 kts